Location: Cosy Dell
(34.2789°N, 117.4537°W)
Time: 21:08:33
(UTC+00:00)

SEDSat Delta rocket - Pass Details

Date: 14 July 2020
Orbit: 533 x 1001 km, 31.4° (Epoch: 13 August)

Event Time Altitude Azimuth Distance (km) Brightness Sun altitude
Rises 03:21:14 0° 229° (SW) 3,013 6.9 -4.2°
Reaches altitude 10° 03:23:41 10° 219° (SW) 2,176 6.0 -4.6°
Maximum altitude 03:28:16 33° 156° (SSE) 1,293 4.3 -5.4°
Drops below altitude 10° 03:33:27 10° 95° (E) 2,473 5.6 -6.3°
Enters shadow 03:35:54 - 87° (E) 3,310 6.3 -6.8°
